Probability
0 0 0 0 0 0 0 0 0 0 0 0 0 0 0 0 0 0 0 0 0 0 0 0 0 0 1 2 3 3 3 3 3 3 3 3 2 2 2 2 1 0 0 0
0 0 0 0 0 0 0 0 0 0 0 0 0 0 0 0 0 0 0 0 0 0 0 0 0 0 0 1 2 3 3 3 3 3 3 3 3 3 3 2 1 0 0 0
0 0 0 0 0 0 0 0 0 0 0 0 0 0 0 0 0 0 0 0 0 0 0 0 0 0 0 0 1 2 3 3 2 2 3 3 3 3 3 3 2 1 0 0
0 0 0 0 0 0 0 0 0 0 0 0 0 0 0 0 0 0 0 0 0 0 0 0 0 0 0 0 0 1 2 1 1 2 3 3 3 2 2 2 2 2 1 0
0 0 0 0 0 0 0 0 0 0 0 0 0 0 0 0 0 0 0 0 0 0 0 0 0 0 0 0 0 0 0 1 1 2 3 3 2 2 2 1 1 2 2 1
0 0 0 0 0 0 0 0 0 0 0 0 0 0 0 0 0 0 0 0 0 0 0 0 0 0 0 0 0 0 0 0 1 1 2 2 2 2 2 1 1 1 2 2
0 0 0 0 0 0 0 0 0 0 0 0 0 0 0 0 0 0 0 0 0 0 0 0 0 0 0 0 0 0 0 0 0 0 1 1 2 1 1 1 0 0 1 2
0 0 0 0 0 0 0 0 0 0 0 0 0 0 0 0 0 0 0 0 0 0 0 0 0 0 0 0 0 0 0 0 0 0 0 0 0 0 0 0 0 0 0 1
0 0 0 0 0 0 0 0 0 0 0 0 0 0 0 0 0 0 0 0 0 0 0 0 0 0 0 0 0 0 0 0 0 0 0 0 0 0 0 0 0 0 0 0
0 0 0 0 0 0 0 0 0 0 0 0 0 0 0 0 0 0 0 0 0 0 0 0 0 0 0 0 0 0 0 0 0 0 0 0 0 0 0 0 0 0 0 0
0 0 0 0 0 0 0 0 0 0 0 0 0 0 0 0 0 0 0 0 0 0 0 0 0 0 0 0 1 0 0 0 0 0 0 0 0 0 0 0 0 0 0 0
0 0 0 0 0 0 0 0 0 0 0 0 0 0 0 0 0 0 0 0 0 0 0 0 0 0 0 0 0 0 0 0 0 0 0 0 0 0 0 0 0 0 0 0
0 0 0 0 0 0 0 0 0 0 0 0 0 0 0 0 0 0 0 0 0 0 0 0 0 0 0 0 0 0 0 0 0 0 0 0 0 0 0 0 0 0 0 0
0 0 0 0 0 0 0 0 0 0 0 0 0 0 0 0 0 0 0 0 0 0 0 0 0 0 0 0 0 0 0 0 0 0 0 0 0 0 0 0 0 0 0 0
0 0 0 0 0 0 0 0 0 0 0 0 0 0 0 0 0 0 0 0 0 0 0 0 0 0 0 0 0 0 0 0 0 0 0 0 0 0 0 0 0 0 0 0
0 0 0 0 0 0 0 0 0 0 0 0 0 0 0 0 0 0 0 0 0 0 0 0 0 0 0 0 0 0 0 0 0 0 0 0 0 0 0 0 0 0 0 0
0 0 0 0 0 0 0 0 0 0 0 0 0 0 0 0 0 0 0 0 0 0 0 0 0 0 0 0 0 0 0 0 0 0 0 0 0 0 0 0 0 0 0 0
0 0 0 0 0 0 0 0 0 0 0 0 0 0 0 0 0 0 0 0 0 0 0 0 0 0 0 0 0 0 0 0 0 0 0 0 0 0 0 0 0 0 0 0
0 0 0 0 0 0 0 0 0 0 0 0 0 0 0 0 0 0 0 0 0 0 0 0 0 0 0 0 0 0 0 0 0 0 0 0 0 0 0 0 0 0 0 0
0 0 0 0 0 0 0 0 0 0 0 0 0 0 0 0 0 0 0 0 0 0 0 0 0 0 0 0 0 0 0 0 0 0 0 0 0 0 0 0 0 0 0 0
0 0 0 0 0 0 0 0 0 0 0 0 0 0 0 0 0 0 0 0 0 0 0 0 0 0 0 0 0 0 0 0 0 0 0 0 0 0 0 0 0 0 0 0
0 0 0 0 0 0 0 0 0 0 0 0 0 0 0 0 0 0 0 0 0 0 0 0 0 0 0 0 0 0 0 0 0 0 0 0 0 0 0 0 0 0 0 0
0 0 0 0 0 0 0 0 0 0 0 0 0 0 0 0 0 0 0 0 0 0 0 0 0 0 0 0 0 0 0 0 0 0 0 0 0 0 0 0 0 0 0 0
0 0 0 0 0 0 0 0 0 0 0 0 0 0 0 0 0 0 0 0 0 0 0 0 0 0 0 0 0 0 0 0 0 0 0 0 0 0 0 0 0 0 0 0
0 0 0 0 0 0 0 0 0 0 0 0 0 0 0 0 0 0 0 0 0 0 0 0 0 0 0 0 0 0 0 0 0 0 0 0 0 0 0 0 0 0 0 0
0 0 0 0 0 0 0 0 0 0 0 0 0 0 0 0 0 0 0 0 0 0 0 0 0 0 0 0 0 0 0 0 0 0 0 0 0 0 0 0 0 0 0 0
Wind_Speed
1 3 6 9 9 4 4 4 5 5 2 2 5 10 10 5 4 6 6 5 5 6 5 2 2 2 2 2 2 3 4 5 5 4 4 4 3 3 2 2 2 4 4 4
2 7 8 4 3 2 3 4 4 3 1 2 4 10 9 6 5 6 6 6 5 4 3 2 1 1 2 3 3 3 4 5 5 4 4 3 3 2 2 2 2 3 4 4
9 6 4 4 3 4 5 6 6 3 3 1 3 9 6 4 3 3 4 5 4 5 5 3 2 2 2 3 3 3 4 5 5 4 3 3 2 2 2 2 2 3 4 4
6 4 3 4 5 6 8 5 4 3 1 3 0 6 7 3 4 5 5 4 5 4 4 3 2 2 3 3 3 3 3 4 5 5 5 6 4 4 4 3 3 3 3 3
6 4 4 6 7 6 4 1 2 2 2 2 1 3 10 1 5 7 6 6 5 4 4 4 4 4 3 2 2 2 2 3 4 5 6 6 4 3 2 2 3 3 3 3
3 2 4 4 2 4 3 3 3 2 2 4 6 6 9 4 6 5 5 5 3 2 3 3 2 1 1 1 2 2 2 2 3 5 5 5 5 4 4 3 4 3 2 2
3 2 2 2 2 1 3 4 2 2 1 7 3 5 11 5 4 4 5 4 3 2 2 2 1 1 1 1 1 2 3 2 2 3 4 5 5 6 6 5 4 4 3 3
5 5 5 3 5 6 6 7 7 6 5 4 2 8 9 4 3 2 2 2 2 2 2 2 3 3 2 2 2 2 2 2 2 2 2 3 4 4 4 4 4 4 3 3
6 5 1 2 1 7 6 5 4 4 1 2 6 7 9 2 2 2 2 1 2 2 2 2 1 1 2 2 2 3 3 2 1 2 2 2 2 3 3 3 3 2 2 2
5 3 2 1 2 1 4 5 4 4 5 5 5 5 6 4 4 3 3 3 3 2 2 1 1 1 1 1 1 1 2 2 1 1 1 1 2 2 2 2 3 3 2 2
3 4 1 1 5 6 4 4 4 4 4 5 4 7 5 5 4 5 6 4 4 3 3 2 1 1 1 1 1 1 1 1 1 1 1 1 1 1 1 2 2 2 2 2
3 3 3 5 2 1 3 5 6 5 5 4 4 9 2 3 3 3 4 3 2 2 2 1 1 1 1 1 1 1 1 1 1 1 1 1 1 1 1 1 1 2 2 2
5 4 2 2 2 1 2 4 4 3 3 4 5 8 3 3 3 3 3 2 2 1 1 1 1 1 1 1 1 1 1 1 1 1 1 1 0 1 1 0 1 1 2 2
5 4 6 9 6 5 5 5 6 5 5 6 9 9 7 5 5 4 3 3 2 2 2 2 2 1 1 1 1 1 1 1 1 1 1 1 0 1 0 0 1 1 2 2
4 4 4 4 3 3 6 8 9 10 10 10 10 10 11 8 7 6 4 3 3 3 3 4 3 2 1 1 1 1 1 1 1 1 1 1 0 0 1 1 1 1 1 1
3 4 2 4 3 3 6 9 11 12 10 11 10 13 8 6 4 4 4 4 5 5 5 4 3 3 2 2 2 1 1 1 1 1 1 0 1 1 1 1 1 1 1 1
5 5 4 5 2 2 10 11 12 9 9 9 14 15 5 5 6 7 7 6 7 6 5 5 5 4 4 3 3 2 2 1 2 1 1 1 1 1 0 1 1 1 1 1
6 5 3 2 1 10 10 4 8 11 10 10 9 8 7 9 7 5 5 6 6 5 5 5 4 4 3 3 2 2 2 2 2 1 1 1 1 1 1 1 1 1 1 1
6 7 4 4 6 10 9 4 6 8 10 9 13 11 7 3 3 5 4 6 7 6 5 4 4 3 3 3 3 3 2 2 2 1 1 1 1 1 1 1 1 0 1 1
3 4 5 5 6 11 9 4 4 3 10 6 9 10 7 2 4 8 3 4 4 3 2 3 2 2 3 2 3 3 3 2 2 2 1 1 1 1 1 1 1 0 1 1
5 5 7 8 8 11 7 2 5 7 9 3 6 8 7 7 8 5 2 2 3 2 2 3 3 3 3 3 3 3 2 2 2 1 1 1 1 1 1 1 1 1 1 1
9 7 8 6 8 12 3 6 9 8 2 1 3 4 5 6 4 2 2 2 2 2 2 3 3 2 1 2 3 2 2 1 1 1 1 1 1 1 1 1 1 1 1 2
8 9 7 10 9 3 5 6 5 2 3 3 3 3 4 4 4 3 3 3 3 2 2 3 3 2 1 1 3 3 1 0 1 1 1 1 1 1 1 1 2 1 2 2
4 2 4 5 7 4 5 4 3 3 4 4 3 3 3 4 4 3 3 2 2 2 2 3 3 2 1 1 1 1 1 1 2 2 1 1 1 1 0 1 1 2 2 2
5 4 4 6 5 4 5 5 5 4 2 2 2 2 3 3 3 3 3 3 2 2 2 2 3 3 2 1 0 0 1 2 2 1 1 1 1 1 1 1 2 2 3 3
5 6 7 7 5 5 6 4 3 3 3 3 2 2 2 2 3 3 3 2 2 2 2 2 2 2 2 1 1 0 0 2 2 1 1 1 1 1 1 1 1 3 3 4
Wind_Direction
149 140 205 211 208 206 175 199 244 252 261 224 242 265 277 277 257 254 256 260 262 261 270 259 214 181 153 160 165 176 174 172 160 158 163 164 176 179 179 176 167 162 160 162
127 225 225 197 191 200 201 220 245 282 312 235 273 276 272 251 242 234 235 246 256 277 302 289 223 178 181 187 188 176 181 177 174 176 172 166 161 168 177 172 168 169 168 169
196 223 199 178 188 204 227 220 231 259 323 306 319 295 272 264 262 261 243 243 250 249 258 258 224 210 192 196 201 194 191 184 177 163 137 122 118 125 160 179 182 179 175 173
225 230 177 184 209 197 235 226 219 228 251 279 287 288 283 259 281 266 255 250 249 252 256 252 225 214 210 211 203 191 182 180 175 164 161 162 171 184 196 189 186 178 174 175
223 202 190 205 214 193 217 190 196 209 191 292 255 239 282 287 264 259 248 246 250 248 236 233 224 216 209 191 176 173 159 171 171 171 174 173 179 178 158 160 171 176 178 177
239 222 202 201 207 179 147 72 54 69 107 251 219 198 274 233 233 260 252 245 251 257 246 236 234 205 174 132 126 127 133 148 168 172 175 180 179 169 164 174 180 184 185 188
256 252 238 161 118 135 130 113 48 341 250 244 193 205 251 246 234 236 244 244 249 244 230 220 198 180 163 135 129 134 141 141 157 170 177 185 186 181 184 187 188 185 191 203
194 237 213 193 182 181 193 165 174 202 226 267 203 230 252 256 261 270 258 241 239 241 224 210 200 189 180 171 159 151 151 151 159 168 181 181 182 183 191 192 191 195 200 203
188 232 267 221 196 152 168 200 183 143 130 261 252 269 293 277 286 293 282 273 242 234 220 213 201 185 180 178 181 177 170 158 152 169 169 167 172 178 185 183 180 187 192 181
163 210 258 273 89 221 175 157 136 163 185 240 266 252 253 259 255 264 265 253 244 227 214 205 196 193 198 185 159 140 157 169 158 152 163 160 160 174 177 165 171 176 180 173
152 168 259 161 191 187 156 170 175 174 189 192 247 261 233 226 224 229 240 240 223 216 213 201 193 180 132 89 103 115 126 128 122 125 113 101 101 104 142 166 177 173 171 173
153 147 211 231 244 234 176 184 171 183 222 212 226 263 285 246 260 246 253 247 222 207 205 190 166 133 113 107 104 128 145 142 150 137 119 122 115 106 105 153 175 171 171 171
148 139 125 332 321 313 221 210 193 163 155 188 206 259 305 322 306 283 266 262 240 206 193 176 156 165 167 164 164 168 171 168 141 130 132 118 110 115 138 174 155 150 155 154
138 162 190 205 217 184 216 219 195 175 201 220 228 253 282 285 280 280 261 241 226 214 206 199 200 198 191 191 190 184 185 155 138 127 135 141 166 170 162 117 114 125 131 137
136 192 222 251 256 197 223 219 207 213 213 216 239 243 255 256 249 252 247 236 222 223 218 209 205 204 202 198 207 198 185 138 127 129 146 186 186 92 84 81 82 104 112 121
147 177 190 258 260 257 260 242 224 228 229 234 251 260 254 256 246 247 238 230 232 234 226 217 209 199 203 204 208 203 184 159 128 141 167 175 100 90 94 112 110 101 109 105
172 158 173 246 263 338 261 225 208 218 221 214 235 249 254 252 243 235 232 229 232 230 221 212 208 206 209 207 199 204 202 161 147 152 137 122 121 119 124 123 106 107 120 119
172 169 178 194 154 236 246 197 197 217 232 224 240 253 240 244 250 242 223 218 229 227 223 220 211 205 206 197 192 185 163 153 153 150 149 146 143 146 130 126 135 139 140 148
182 169 169 181 226 263 274 226 185 206 249 228 239 253 259 275 296 275 230 212 219 216 214 214 206 196 188 182 177 159 152 151 153 172 184 178 163 165 160 177 197 193 168 170
168 167 172 187 206 236 249 223 190 165 261 234 223 238 240 201 249 262 245 216 218 208 193 184 167 152 163 175 163 153 159 160 186 203 199 179 170 175 191 213 216 234 192 191
178 189 199 210 226 253 254 206 136 180 248 247 213 220 207 207 232 258 236 215 199 187 171 150 148 165 179 167 156 161 168 197 208 180 160 162 173 180 188 195 197 200 192 179
183 184 199 194 218 246 202 153 186 222 265 255 232 220 214 229 247 254 224 201 179 159 150 149 155 177 169 156 152 165 203 232 158 149 154 169 175 176 164 173 197 197 180 180
202 195 189 197 218 235 176 198 224 237 251 260 254 246 215 225 233 231 222 203 194 187 178 162 157 159 161 161 159 179 228 157 131 143 165 179 177 179 173 183 195 200 188 190
244 209 187 235 252 250 244 254 266 262 256 268 257 240 214 219 227 225 218 209 200 201 179 159 152 166 205 186 148 182 195 146 144 166 182 179 173 181 194 204 203 208 206 206
214 184 200 236 259 279 263 244 251 262 264 264 282 260 232 214 228 227 224 217 207 195 169 161 168 183 204 179 129 79 137 140 152 166 180 187 188 190 211 234 236 234 230 219
198 191 196 224 219 216 243 238 224 231 248 244 248 281 276 232 234 231 225 215 190 177 162 163 172 180 191 175 179 316 150 154 157 172 192 200 200 210 216 238 302 284 270 268